This is the latest recevied weather packets stored in our database for station/object K1WJY. If no packets are shown the sender has not sent any weather packets the latest 10 day(s).
| Time | Temp. | Humidity | Pressure | Rain* | Wind** | Luminosity | Snow |
|---|---|---|---|---|---|---|---|
| 1787951171 | 23.33° C | 95% | 1016.6 hPa | 0 mm | - | 115 W/m² | - |
| 1787950867 | 23.33° C | 95% | 1016.5 hPa | 0 mm | - | 75 W/m² | - |
| 1787950562 | 23.89° C | 95% | 1016.5 hPa | 0 mm | - | 103 W/m² | - |
| 1787950258 | 23.89° C | 94% | 1016.5 hPa | 0 mm | - | 112 W/m² | - |
| 1787949954 | 23.89° C | 94% | 1016.7 hPa | 0 mm | - | 116 W/m² | - |
| 1787949649 | 23.89° C | 94% | 1016.5 hPa | 0 mm | - | 98 W/m² | - |
| 1787949349 | 23.89° C | 95% | 1016.5 hPa | 0 mm | - | 121 W/m² | - |
| 1787949043 | 23.89° C | 95% | 1016.5 hPa | 0 mm | - | 118 W/m² | - |
| 1787948739 | 23.89° C | 94% | 1016.5 hPa | 0 mm | - | 155 W/m² | - |
| 1787948434 | 23.89° C | 94% | 1016.7 hPa | 0 mm | - | 182 W/m² | - |
| 1787948129 | 23.89° C | 92% | 1016.6 hPa | 0 mm | - | 206 W/m² | - |
| 1787947829 | 23.89° C | 93% | 1016.7 hPa | 0 mm | - | 221 W/m² | - |
| 1787947527 | 23.89° C | 93% | 1016.9 hPa | 0 mm | - | 223 W/m² | - |
| 1787947223 | 23.89° C | 93% | 1016.8 hPa | 0 mm | - | 255 W/m² | - |
| 1787946922 | 23.89° C | 93% | 1016.8 hPa | 0 mm | - | 175 W/m² | - |
| 1787946620 | 23.89° C | 93% | 1016.8 hPa | 0 mm | - | 150 W/m² | - |
| 1787946315 | 24.44° C | 91% | 1016.8 hPa | 0 mm | - | 241 W/m² | - |
| 1787946015 | 24.44° C | 91% | 1016.9 hPa | 0 mm | - | 344 W/m² | - |
| 1787945714 | 23.89° C | 93% | 1016.8 hPa | 0 mm | - | 279 W/m² | - |
| 1787945410 | 23.89° C | 94% | 1017.1 hPa | 0 mm | - | 210 W/m² | - |
| 1787945105 | 23.89° C | 93% | 1016.8 hPa | 0 mm | - | 128 W/m² | - |
| 1787944802 | 23.89° C | 94% | 1016.9 hPa | 0 mm | - | 105 W/m² | - |
| 1787944498 | 23.89° C | 94% | 1017 hPa | 0 mm | - | 145 W/m² | - |
| 1787944193 | 23.89° C | 93% | 1017.2 hPa | 0 mm | - | 116 W/m² | - |
| 1787943893 | 23.89° C | 92% | 1017.1 hPa | 0 mm | - | 135 W/m² | - |
* Rain latest hour (hover to see other rain measurements)
** Current wind speed in m/s (hover to see current wind gust speed)